ODB weather

Córdoba Airport
Córdoba, Andalucía, Spain

Public forecast

Using degrees Celsius for public forecast. Weather courtesy of forecast.io.

METAR (pilot weather report)

Retrieved 2018/12/18 15:30 UTC (0 seconds ago):

LEBA 181530Z VRB01KT CAVOK 15/07 Q1023

TAF (pilot weather forecast)

Forecast is more than 12 hours old.

Retrieved 2015/01/24 09:27 UTC (4 years ago):

TAF TAF LEBA 240800Z 2409/2421 VRB02KT CAVOK